Home > Weather > Wilmington > Past weeks

Flag for USA Past Weather in Wilmington, North Carolina, USA — Yesterday and Last 2 Weeks

Now
85 °F

Broken clouds.


Feels Like: 89 °F
Forecast: 71 / 87 °F
Wind: No wind

Location: New Hanover International Airport

Current Time: Aug 25, 2016 at 1:06:02 PM

Latest Report: Aug 25, 2016 at 11:53 AM


Visibility: 10 mi

Pressure: 30.17 "Hg

Humidity: 61%

Dew Point: 70 °F

Location of WilmingtonLocation

Past Weather in Wilmington — Graph

°F

Wilmington Temperature Yesterday

Maximum temperature yesterday: 86 °F (at 2:53 PM)
Minimum temperature yesterday: 66 °F (at 6:53 AM)
Average temperature yesterday: 76 °F

High & Low Weather Summary for the Past Weeks

 TemperatureHumidityPressure
High95 °F (Aug 21, 4:53 PM)100% (Aug 20, 3:53 AM)30.28 "Hg (Aug 20, 3:53 AM)
Low66 °F (Aug 24, 6:53 AM)43% (Aug 24, 2:53 PM)29.83 "Hg (Aug 20, 5:53 PM)
Average82 °F75%30.09 "Hg
* Reported Aug 10 11:53 AM — Aug 25 11:53 AM, Wilmington, Weather by CustomWeather, © 2016

Note: Actual official high and low records may vary slightly from our data, if they occured in-between our weather recording intervals... More about our weather records

Advertising

Wilmington Weather History for the Previous 24 Hours

Scroll right to see more
 ConditionsComfort  
Time TempWeatherWind HumidityBarometerVisibility
11:53 AM
Thu, Aug 25
85 °FBroken clouds.No wind61%30.17 "Hg10 mi
10:53 AM82 °FBroken clouds.5 mph65%30.17 "Hg10 mi
9:53 AM82 °FSunny.5 mph70%30.17 "Hg10 mi
8:53 AM78 °FPartly sunny.5 mph76%30.17 "Hg10 mi
7:53 AM73 °FScattered clouds.5 mph88%30.16 "Hg10 mi
6:53 AM70 °FClear.No wind93%30.14 "Hg10 mi
5:53 AM70 °FClear.No wind93%30.14 "Hg10 mi
4:53 AM71 °FMostly cloudy.3 mph90%30.13 "Hg10 mi
4:02 AM71 °FPartly cloudy.6 mph90%30.14 "Hg10 mi
3:53 AM71 °FPassing clouds.5 mph90%30.14 "Hg10 mi
2:53 AM71 °FPassing clouds.3 mph87%30.14 "Hg10 mi
1:53 AM71 °FClear.3 mph90%30.16 "Hg10 mi
12:53 AM72 °FClear.3 mph84%30.16 "Hg10 mi
11:53 PM
Wed, Aug 24
73 °FClear.3 mph79%30.18 "Hg10 mi
10:53 PM74 °FClear.3 mph76%30.19 "Hg10 mi
9:53 PM74 °FClear.5 mph79%30.19 "Hg10 mi
8:53 PM76 °FPassing clouds.3 mph69%30.19 "Hg10 mi
7:53 PM77 °FSunny.3 mph66%30.18 "Hg10 mi
6:53 PM83 °FSunny.7 mph50%30.18 "Hg10 mi
5:53 PM83 °FSunny.10 mph48%30.19 "Hg10 mi
4:53 PM85 °FSunny.14 mph46%30.19 "Hg10 mi
3:53 PM85 °FSunny.12 mph45%30.19 "Hg10 mi
2:53 PM86 °FPassing clouds.12 mph43%30.22 "Hg10 mi
1:53 PM84 °FPassing clouds.12 mph46%30.24 "Hg10 mi
Weather by CustomWeather, © 2016

See weather overviewHow to use our weather pages